Regional Weather Roundup
Issued by NWS

Home | Current Version | Previous Version | Text Only | Print | Product List | Glossary Off
Versions: 1 2 3 4 5 6 7 8 9 10 11 12 13 14 15 16 17 18 19 20 21 22 23 24 25 26 27 28 29 30 31 32 33 34 35 36 37 38 39 40 41 42 43 44 45 46 47 48 49 50

000
ASUS45 KSLC 231410
RWRUT

UTAH REGIONAL WEATHER ROUNDUP
NATIONAL WEATHER SERVICE SALT LAKE CITY UT
800 AM MDT TUE SEP 23 2014

UTZ001>011-023>025-231500-

NORTHERN UTAH

CITY           SKY/WX    TMP DP  RH WIND       PRES   REMARKS
HILL AFB       CLEAR     59  49  67 SE13      30.16R
LOGAN          CLEAR     49  48  97 CALM      30.17R
OGDEN          CLEAR     58  50  75 S8        30.14R
PROVO AIRPORT  PTCLDY    54  48  82 CALM      30.20R
SALT LAKE CITY PTCLDY    61  53  75 S7        30.14R
VERNAL         CLOUDY    54  48  80 W3        30.21R
WENDOVER       CLEAR     55  48  76 CALM      30.15R
HEBER CITY     CLEAR     46  45  93 CALM      30.25R
WEST JORDAN    CLEAR     59  50  72 CALM      30.17R

$$

UTZ012>022-026-027-231500-

SOUTHERN UTAH

CITY           SKY/WX    TMP DP  RH WIND       PRES   REMARKS
BRYCE CANYON   PTCLDY    39  35  86 W9        30.37R WCI  33
CEDAR CITY     CLEAR     46  39  76 CALM      30.24R
MILFORD        CLEAR     50  45  83 SW5       30.20R
MOAB/CYNLANDS  CLEAR     59  55  87 CALM      30.16R
PRICE          CLEAR     57  51  80 N7        30.25R
ST GEORGE      SUNNY     61  45  55 CALM      30.13R
KANAB            N/A     48  43  81 NE5       30.26R

$$

REGIONAL REPORTS     COLORADO/ARIZONA

CITY           SKY/WX    TMP DP  RH WIND       PRES   REMARKS
CRAIG, CO      CLOUDY    53  49  86 N3        30.26R
GRAND JUNCTION MOSUNNY   59  54  83 E7        30.20R
RIFLE          MOSUNNY   54  51  90 CALM      30.25R
MONTROSE       CLOUDY    55  49  80 S10       30.30R
CORTEZ         SUNNY     47  45  93 CALM      30.29R
PAGE, AZ       CLEAR     64  43  46 S9        30.17R
GRAND CANYON   CLEAR     40  37  89 CALM      30.33R
KINGMAN        CLEAR     58  38  47 S5        30.11S
FLAGSTAFF      CLEAR     45  41  86 CALM      30.35R

$$

REGIONAL REPORTS    NEVADA/IDAHO/WYOMING

CITY           SKY/WX    TMP DP  RH WIND       PRES   REMARKS
LAS VEGAS, NV  CLEAR     73  41  31 S9        29.99R
ELY            CLEAR     45  42  89 CALM      30.26R
ELKO           PTCLDY    48  42  80 E3        30.19R
POCATELLO, ID  CLEAR     48  48 100 CALM      30.16R
BURLEY         CLEAR     48  46  93 CALM      30.12R
EVANSTON, WY   PTCLDY    51  44  77 SW7       30.29R
ROCK SPRINGS   CLEAR     47  43  86 W3        30.27R

$$



USA.gov is the U.S. government's official web portal to all federal, state and local government web resources and services.